Weather History for Pueblo, CO

Change the Weather History Date:

Friday, February 15, 2013

  Actual Average Record
Temperature  
Mean Temperature 30 °F 34 °F  
Max Temperature 47 °F 50 °F 78 °F (1947)
Min Temperature 13 °F 17 °F -23 °F (1895)
Degree Days  
Heating Degree Days 35 31  
Month to date heating degree days 469 491  
Since 1 July heating degree days 3788 3923  
Cooling Degree Days 0 0  
Month to date cooling degree days 0 0  
Year to date cooling degree days 0 0  
Moisture  
Dew Point 12 °F    
Average Humidity 53    
Maximum Humidity 84    
Minimum Humidity 21    
Precipitation  
Precipitation 0.00 in 0.01 in 0.22 in (1965)
Month to date precipitation 0.15 0.13  
Year to date precipitation 0.36 0.48  
Snow  
Snow 0.00 in 0.10 in 2.80 in (1965)
Month to date snowfall 1.0 2.2  
Since 1 July snowfall 10.4 20.2  
Snow Depth 0.00 in    
Sea Level Pressure  
Sea Level Pressure 30.36 in    
Wind  
Wind Speed 3 mph (East)    
Max Wind Speed 28 mph    
Max Gust Speed 31 mph    
Visibility 10 miles    
Events      
T = Trace of Precipitation, MM = Missing Value Source: NWS Daily Summary

Daily Weather History Graph

Daily Weather History Graph

Search for Another Location

Airport:

Trip Planner

Search our weather history database for the weather conditions in past years. The results will help you decide how hot, cold, wet, or windy it might be!

Date:

Astronomy

Feb. 15, 2013 Rise Set
Actual Time 6:48 AM MST 5:36 PM MST
Civil Twilight 6:20 AM MST 6:03 PM MST
Nautical Twilight 5:50 AM MST 6:34 PM MST
Astronomical Twilight 5:19 AM MST 7:05 PM MST
Moon 9:31 AM MST (2/15) 11:34 PM MST (2/15)
Length of Visible Light 11h 42m
Length of Day
10h 48m
Waxing Crescent, 31% of the Moon is Illuminated
Feb 15
Waxing Crescent
Feb 17
First Quarter
Feb 25
Full
Mar 4
Last Quarter
Mar 11
New

Hourly Weather History & Observations

Time (MST) Temp. Windchill Dew Point Humidity Pressure Visibility Wind Dir Wind Speed Gust Speed Precip Events Conditions
12:53 AM 19.9 °F - 9.0 °F 62% 30.33 in 10.0 mi Calm Calm - N/A   Clear
1:53 AM 16.0 °F - 7.0 °F 68% 30.33 in 10.0 mi Calm Calm - N/A   Clear
2:53 AM 16.0 °F - 9.0 °F 74% 30.35 in 10.0 mi Calm Calm - N/A   Mostly Cloudy
3:53 AM 15.1 °F - 9.0 °F 77% 30.34 in 10.0 mi Calm Calm - N/A   Clear
4:53 AM 16.0 °F 10.4 °F 10.9 °F 81% 30.35 in 10.0 mi ENE 3.5 mph - N/A   Clear
5:53 AM 12.9 °F - 8.1 °F 81% 30.38 in 10.0 mi Calm Calm - N/A   Clear
6:53 AM 16.0 °F 8.8 °F 10.9 °F 81% 30.40 in 10.0 mi WNW 4.6 mph - N/A   Clear
7:53 AM 18.0 °F - 10.9 °F 74% 30.40 in 10.0 mi Calm Calm - N/A   Partly Cloudy
8:53 AM 25.0 °F - 16.0 °F 69% 30.40 in 10.0 mi Calm Calm - N/A   Clear
9:53 AM 30.0 °F - 18.0 °F 61% 30.37 in 10.0 mi Calm Calm - N/A   Clear
10:53 AM 34.0 °F - 18.0 °F 52% 30.35 in 10.0 mi Calm Calm - N/A   Partly Cloudy
11:53 AM 39.9 °F 35.1 °F 15.1 °F 36% 30.30 in 10.0 mi NNE 6.9 mph - N/A   Clear
12:53 PM 41.0 °F - 12.9 °F 32% 30.29 in 10.0 mi Calm Calm - N/A   Clear
1:53 PM 43.0 °F 40.3 °F 10.9 °F 27% 30.28 in 10.0 mi South 4.6 mph - N/A   Clear
2:53 PM 46.0 °F 44.8 °F 9.0 °F 22% 30.27 in 10.0 mi Variable 3.5 mph - N/A   Overcast
3:53 PM 46.0 °F - 9.0 °F 22% 30.29 in 10.0 mi Calm Calm - N/A   Mostly Cloudy
4:53 PM 39.9 °F 30.2 °F 12.9 °F 33% 30.32 in 10.0 mi NNE 20.7 mph - N/A   Clear
5:53 PM 35.1 °F 27.4 °F 14.0 °F 42% 30.39 in 10.0 mi ENE 10.4 mph - N/A   Clear
6:53 PM 32.0 °F 24.8 °F 15.1 °F 50% 30.43 in 10.0 mi SE 8.1 mph - N/A   Clear
7:53 PM 27.0 °F 23.0 °F 12.9 °F 56% 30.45 in 10.0 mi SE 3.5 mph - N/A   Clear
8:53 PM 26.1 °F 19.4 °F 12.9 °F 58% 30.44 in 10.0 mi South 5.8 mph - N/A   Clear
9:53 PM 19.0 °F - 8.1 °F 62% 30.44 in 10.0 mi Calm Calm - N/A   Clear
10:53 PM 19.0 °F - 9.0 °F 65% 30.41 in 10.0 mi Calm Calm - N/A   Clear
11:53 PM 19.9 °F - 10.9 °F 68% 30.37 in 10.0 mi Calm Calm - N/A   Clear